Location: Auttagershofen
(48.1940°N, 10.0237°E)
Time: 08:25:24
(UTC+00:00)

Gblst 52 Del rocket - Pass Details

Date: 18 January 2026
Orbit: 805 x 1364 km, 51.5° (Epoch: 16 February)

Event Time Altitude Azimuth Distance (km) Brightness Sun altitude
Exits shadow 05:04:19 37° 280° (W) 1,237 4.5 -19.4°
Maximum altitude 05:06:28 67° 210° (SSW) 869 4.1 -19.0°
Drops below altitude 10° 05:11:58 10° 128° (SE) 2,423 7.5 -18.1°
Sets 05:14:31 0° 126° (SE) 3,396 8.5 -17.7°
